Weather in Niteroi

Brazil     22°52′33″S   43°06′24″W
temp.,
°C
wind,
m/s
gust,
m/s
humid.,
%
clouds,
%
prec.,
mm/h
press.,
hPa
HPBL,
m
20 april, tue
tue2000:00+23w10127828 1.4 10131070
03:00+23w10137819 2.8 10121134
06:00+23w9127952 0.8 10121113
09:00+23w8117731 1.5 10141150
12:00+24w1013730 0.4 10131263
15:00+24wsw1216770 0.8 10121261
18:00+23wsw11148069 1.2 10131186
21:00+23wsw1012784 3.8 10141070
21 april, wed
wed2100:00+23wsw10128046 1.3 1013964
03:00+23w9128163 2.8 1012991
06:00+22w81282100 1.7 10131053
09:00+23w8128098 3.1 10141051
12:00+23w798297 2.5 1014846
15:00+23wsw678087 5.0 1012753
18:00+23wsw568150 3.0 1013622
21:00+23wsw458052 9.0 1015472
22 april, thu
thu2200:00+22w458348 4.6 1015502
03:00+22wnw468359 10.3 1013481
06:00+22wnw358364 5.4 1014374
09:00+22w468056 10.2 1016655
12:00+23sw67728 2.6 1015863
15:00+23sw67754 2.9 1014931
18:00+22wsw56798 0.4 1015684
21:00+22w457912 1.0 1016605
23 april, fri
fri2300:00+22w457814 0.4 1016722
03:00+21nw448628 0.6 1015293
06:00+20nnw448928 0.2 1016313
09:00+22nw34818 0.4 1017433
12:00+23sw557612 0.1 1016678
15:00+23ssw56740 0.2 1013580
18:00+23ssw34731 0.0 1014626
21:00+23sw127122 0.0 1015709
24 april, sat
sat2400:00+22nnw117540 0.0 1015195
03:00+22n227967 0.0 1013226
06:00+21n22840 0.0 1014182
09:00+22n22750 0.0 1015317
12:00+23s32730 0.0 1013377
15:00+24se65744 0.0 1011350
18:00+23e56804 0.0 1011346
21:00+23ene33820 0.0 1012248